DateTimeUTC,F1_A11,F1_S11,BsB_S11,BsG_S11,BsR_S11,BbsB_S11,BbsG_S11,BbsR_S11,BaB_A11,BaG_A11,BaR_A11,Tu_S11,T_S11,Uu_S11,U_S11,P_S11,T1_A11
2021-09-02T14:00:00Z,00000200,20000000,,,,,,,-000.12,0000.30,-000.36,18.6,25.5,02.0,01.3,0677.3,31.0
2021-09-02T14:01:00Z,00000200,20000000,,,,,,,-000.22,-000.02,0000.02,18.6,25.5,02.0,01.3,0677.3,31.0
2021-09-02T14:02:00Z,00000200,20000000,,,,,,,0000.23,-000.21,0000.17,18.6,25.5,02.0,01.3,0677.3,31.0
2021-09-02T14:03:00Z,00000200,60000000,,,,,,,0000.52,0000.86,0000.39,18.6,25.6,02.0,01.3,0677.3,31.0
2021-09-02T14:04:00Z,00000200,41000000,0003.12,0003.31,0002.28,0000.70,0000.24,0000.26,0000.79,0000.67,0000.38,18.8,25.4,02.1,01.4,0678.2,31.0
2021-09-02T14:05:00Z,00000200,00000000,0003.65,0002.76,0001.93,0000.46,0000.07,0000.38,0000.94,0000.82,0000.66,18.8,25.4,02.2,01.5,0678.3,31.0
2021-09-02T14:06:00Z,00000200,00000000,0003.39,0003.19,0002.23,0000.33,0000.00,0000.39,0000.96,0000.76,0000.91,18.8,25.4,02.2,01.5,0678.2,31.0
2021-09-02T14:07:00Z,00000200,00000000,0003.41,0003.28,0002.21,0000.76,0000.34,0000.70,0000.89,0000.56,0000.38,18.8,25.4,02.3,01.5,0678.2,31.0
2021-09-02T14:08:00Z,00000200,00000000,0003.83,0003.07,0002.15,0000.51,0000.23,0000.46,0000.83,0000.68,0000.65,18.8,25.4,02.3,01.5,0678.2,31.0
2021-09-02T14:09:00Z,00000200,00000000,0003.84,0002.72,0002.02,0001.24,0000.12,0000.23,0000.62,0000.98,0000.42,18.8,25.4,02.2,01.5,0678.2,31.0
2021-09-02T14:10:00Z,00000200,00000000,0003.69,0002.48,0001.92,-000.02,0000.08,0000.60,0001.02,0000.92,0000.66,18.8,25.4,02.2,01.5,0678.1,31.0
2021-09-02T14:11:00Z,00000200,00000000,0003.80,0002.95,0002.03,0001.02,0000.32,0000.40,0000.56,0000.42,0000.62,18.9,25.4,02.2,01.5,0678.2,31.0
2021-09-02T14:12:00Z,00000200,00000000,0003.44,0002.90,0001.78,0000.22,0000.26,0000.28,0001.00,0001.05,0000.96,18.9,25.4,02.4,01.6,0678.2,31.0
2021-09-02T14:13:00Z,00000200,00000000,0003.67,0003.04,0001.78,0000.07,0000.43,0000.08,0000.81,0000.97,0000.37,18.9,25.4,02.3,01.6,0678.2,31.0
2021-09-02T14:14:00Z,00000200,00000000,0002.51,0002.87,0002.19,-000.09,0000.25,0000.49,0000.91,0000.77,0000.81,18.9,25.4,02.3,01.6,0678.2,31.0
2021-09-02T14:15:00Z,00000200,00000000,0003.52,0003.19,0001.99,-000.10,0000.33,0000.77,0000.78,0000.47,0000.50,18.9,25.4,02.4,01.6,0678.2,31.0
2021-09-02T14:16:00Z,00000200,00000000,0003.90,0002.95,0001.68,0000.64,0000.34,0000.03,0000.78,0000.71,0000.42,18.9,25.4,02.4,01.6,0678.2,31.0
2021-09-02T14:17:00Z,00000200,00000000,0003.84,0002.92,0001.96,0001.21,0000.28,0000.54,0000.98,0001.07,0000.77,18.9,25.4,02.4,01.6,0678.2,31.1
2021-09-02T14:18:00Z,00000200,00000000,0003.70,0003.01,0001.89,0000.99,0000.27,0000.34,0000.91,0000.81,0000.72,18.9,25.4,02.4,01.6,0678.2,31.0
2021-09-02T14:19:00Z,00000200,00000000,0003.65,0003.10,0002.11,-000.41,0000.39,0000.60,0001.06,0000.82,0000.53,18.9,25.4,02.5,01.7,0678.3,31.0
2021-09-02T14:20:00Z,00000200,00000000,0003.40,0003.01,0002.41,0000.40,0000.13,0000.39,0000.63,0000.60,0000.39,18.9,25.4,02.6,01.7,0678.2,31.0
2021-09-02T14:21:00Z,00000200,00000000,0003.76,0002.82,0002.09,0000.85,0000.16,0000.24,0000.79,0000.67,0000.53,18.9,25.4,02.5,01.7,0678.1,31.0
2021-09-02T14:22:00Z,00000200,00000000,0003.55,0002.80,0002.02,0000.40,0000.58,-000.05,-006.47,-007.02,-004.05,18.9,25.4,02.6,01.7,0678.2,31.0
2021-09-02T14:23:00Z,00000200,00000000,0003.16,0002.85,0001.94,0000.66,-000.19,0000.28,0000.83,0001.14,0000.55,18.9,25.4,02.6,01.7,0678.2,31.1
2021-09-02T14:24:00Z,00000200,00000000,0004.29,0002.58,0001.89,0001.10,0000.12,0000.32,0000.96,0000.72,0000.65,18.9,25.4,02.6,01.7,0678.1,31.1
2021-09-02T14:25:00Z,00000200,00000000,0004.03,0003.01,0001.83,0000.58,0000.33,0000.15,0000.75,0000.67,0000.52,18.9,25.4,02.6,01.7,0678.1,31.0
2021-09-02T14:26:00Z,00000200,00000000,0004.43,0002.88,0002.02,0000.53,0000.62,0000.69,0000.90,0000.66,0000.33,18.9,25.4,02.6,01.7,0678.1,31.1
2021-09-02T14:27:00Z,00000200,00000000,0004.14,0002.73,0002.42,0000.37,-000.25,0000.56,0001.01,0000.71,0000.93,18.9,25.4,02.6,01.8,0678.0,31.1
2021-09-02T14:28:00Z,00000200,00000000,0003.12,0002.90,0001.92,0000.31,0000.02,0000.31,0000.61,0000.98,0000.30,18.9,25.4,02.7,01.8,0678.1,31.1
2021-09-02T14:29:00Z,00000200,00000000,0003.65,0002.80,0001.85,0000.40,0000.50,0000.36,0000.94,0000.52,0000.89,18.9,25.4,02.7,01.8,0678.1,31.1
2021-09-02T14:30:00Z,00000200,00000000,0003.59,0003.27,0001.96,0000.66,0000.22,0000.43,0000.74,0000.92,0000.16,19.0,25.4,02.8,01.9,0678.1,31.1
2021-09-02T14:31:00Z,00000200,00000000,0003.83,0003.10,0001.82,-000.02,0000.27,0000.29,0001.06,0000.64,0000.90,19.0,25.4,02.7,01.8,0678.2,31.1
2021-09-02T14:32:00Z,00000200,00000000,0003.33,0003.19,0001.91,0000.86,0000.31,0000.40,0000.51,0000.75,0000.79,19.0,25.4,02.8,01.9,0678.0,31.1
2021-09-02T14:33:00Z,00000200,00000000,0003.46,0002.94,0001.94,0000.15,0000.23,0000.53,0000.85,0000.84,0000.17,19.0,25.4,02.8,01.9,0677.9,31.1
2021-09-02T14:34:00Z,00000200,00000000,0004.06,0002.66,0002.03,0000.25,0000.13,0000.46,0000.58,0000.65,0001.10,19.0,25.4,02.8,01.9,0677.9,31.1
2021-09-02T14:35:00Z,00000200,00000000,0003.65,0002.90,0002.45,0000.55,-000.02,0000.50,0000.80,0000.78,0000.41,19.0,25.5,02.7,01.8,0678.0,31.1
2021-09-02T14:36:00Z,00000200,00000000,0003.66,0002.82,0001.81,0000.04,0000.40,0000.15,0001.18,0001.02,0000.52,19.0,25.4,02.8,01.9,0678.1,31.1
2021-09-02T14:37:00Z,00000200,00000000,0004.03,0002.87,0001.99,-000.05,0000.37,0000.37,0000.81,0000.59,0000.69,19.0,25.4,02.8,01.9,0678.0,31.1
2021-09-02T14:38:00Z,00000200,00000000,0003.46,0002.89,0002.00,0000.28,0000.28,0000.42,0000.72,0001.06,0000.60,19.0,25.4,02.9,01.9,0677.9,31.0
2021-09-02T14:39:00Z,00000200,00000000,0003.07,0002.81,0002.20,0000.39,0000.24,0000.29,0000.50,0000.48,0000.37,19.0,25.5,02.7,01.8,0677.9,31.1
2021-09-02T14:40:00Z,00000200,00000000,0003.39,0002.60,0001.97,0000.54,0000.47,0000.54,0000.84,0000.58,0000.70,19.0,25.5,02.8,01.9,0677.8,31.1
2021-09-02T14:41:00Z,00000200,00000000,0003.63,0002.72,0002.28,0000.74,0000.13,0000.36,0000.92,0000.85,0000.70,19.0,25.5,02.8,01.9,0677.9,31.1
2021-09-02T14:42:00Z,00000200,00000000,0003.07,0002.88,0002.15,0000.67,0000.41,0000.41,0001.05,0000.79,0000.61,19.0,25.5,02.8,01.9,0677.8,31.1
2021-09-02T14:43:00Z,00000200,00000000,0002.93,0003.13,0002.07,0000.36,0000.24,0000.54,0000.97,0001.01,0000.55,19.0,25.5,02.9,02.0,0677.9,31.1
2021-09-02T14:44:00Z,00000200,00000000,0003.78,0002.98,0002.23,0000.30,0000.56,0000.80,0000.64,0000.49,0000.74,19.1,25.5,03.0,02.0,0677.9,31.1
2021-09-02T14:45:00Z,00000200,00000000,0003.13,0002.99,0001.75,0000.47,0000.19,0000.25,0000.79,0000.84,0000.49,19.1,25.5,02.9,02.0,0677.9,31.1
2021-09-02T14:46:00Z,00000200,00000000,0003.39,0002.72,0001.77,0000.42,0000.04,0000.39,0000.87,0000.73,0000.68,19.1,25.5,02.9,02.0,0677.8,31.1
2021-09-02T14:47:00Z,00000200,00000000,0003.35,0002.93,0002.18,0001.30,0000.03,0000.45,0000.88,0000.65,0000.36,19.1,25.5,02.9,02.0,0677.8,31.1
2021-09-02T14:48:00Z,00000200,00000000,0003.85,0002.86,0002.33,0000.27,0000.20,0000.58,0000.84,0000.74,0000.68,19.1,25.5,02.9,02.0,0677.8,31.1
2021-09-02T14:49:00Z,00000200,00000000,0002.95,0003.01,0002.20,0000.27,0000.25,0000.51,0000.47,0000.80,0000.37,19.1,25.5,02.9,02.0,0677.8,31.1
2021-09-02T14:50:00Z,00000200,00000000,0003.80,0003.17,0001.73,0001.09,0000.29,0000.32,0000.91,0000.62,0000.68,19.1,25.5,02.9,02.0,0677.8,31.1
2021-09-02T14:51:00Z,00000200,00000000,0003.72,0003.41,0001.93,-000.33,0000.64,0000.42,0001.10,0001.03,0000.79,19.1,25.5,02.9,02.0,0677.8,31.1
2021-09-02T14:52:00Z,00000200,00000000,0003.37,0002.85,0002.11,0000.42,0000.47,0000.72,0000.52,0000.86,0000.32,19.1,25.5,03.0,02.0,0677.9,31.1
2021-09-02T14:53:00Z,00000200,00000000,0003.89,0003.10,0002.04,0000.53,0000.17,0000.60,0001.27,0000.52,0001.03,19.1,25.5,03.0,02.0,0677.9,31.1
2021-09-02T14:54:00Z,00000200,00000000,0003.95,0002.92,0002.13,0000.29,0000.78,0000.41,0000.42,0000.95,0000.36,19.1,25.5,03.0,02.0,0677.8,31.1
2021-09-02T14:55:00Z,00000200,00000000,0003.93,0002.82,0002.00,0001.05,0000.36,0000.48,0001.22,0000.64,0000.70,19.1,25.5,03.0,02.0,0677.7,31.1
2021-09-02T14:56:00Z,00000200,00000000,0003.35,0003.04,0002.19,0000.59,0000.09,0000.28,0000.69,0000.80,0000.94,19.1,25.5,03.0,02.0,0677.8,31.1
2021-09-02T14:57:00Z,00000200,40000000,,,,,,,0000.19,0000.05,-000.27,19.2,25.6,03.1,02.1,0677.8,31.1
2021-09-02T14:58:00Z,00000200,60000000,,,,,,,0000.10,0000.38,0000.23,18.9,25.7,02.6,01.7,0676.9,31.1
2021-09-02T14:59:00Z,00000200,20000000,,,,,,,-000.15,0000.17,-000.08,18.9,25.8,02.6,01.7,0676.8,31.1
